[[{"header":{"parameterUnit":"m.s-1","parameterCategory":1,"la1":30.2992,"la2":30.254,"lo1":-89.0895,"lo2":-89.0443,"dy":0.0025,"dx":0.0025,"nx":19,"ny":19,"refTime":"2026-04-08T03:00:00:Z","depth":0,"parameterNumber":2,"parameterNumberName":"U-component_of_WINDS"},"data":[0,0,0,-6.736,-6.7365,-6.757,-6.7571,-6.7886,-6.7889,0,0,0,0,0,0,0,0,0,0,0,-6.7332,-6.7335,-6.7359,-6.7365,-6.757,-6.7571,-6.7886,-6.7889,0,0,0,0,0,0,0,0,0,0,0,-6.733,-6.7334,-6.7339,-6.7366,-6.757,-6.7571,-6.7885,-6.7711,0,0,0,0,0,0,0,0,0,0,-6.7502,-6.751,-6.7334,-6.7339,-6.7368,-6.757,-6.7571,-6.7702,-6.7722,-6.7816,0,-6.791,0,-6.7905,-6.7914,-6.7915,0,0,0,-6.7341,-6.7494,-6.7518,-6.7339,-6.737,-6.757,-6.7471,-6.7712,-6.7735,-6.7843,-6.7914,-6.7924,-6.791,-6.7916,-6.7918,-6.8542,-6.8546,0,0,-6.7329,-6.7387,-6.7503,-6.7535,-6.7507,-6.7464,-6.7477,-6.7725,-6.7806,-6.7915,-6.793,-6.7915,-6.7919,-6.7922,-6.8538,-6.8543,0,0,0,-6.7313,-6.7381,-6.7398,-6.7523,-6.7556,-6.7471,-6.7486,-6.7795,-6.7795,-6.7933,-6.7919,-6.7921,-6.7925,-6.8533,-6.854,-6.8793,0,0,0,-6.7305,-6.7371,-6.7394,-6.7432,-6.7553,-6.7679,-6.7551,-6.7778,-6.7804,-6.7917,-6.7921,-6.7929,-6.8529,-6.8537,-6.8777,-6.8904,0,0,0,-6.7307,-6.737,-6.7412,-6.7435,-6.7525,-6.7673,-6.7687,-6.7783,-6.7798,-6.7916,-6.793,-6.8526,-6.8535,-6.8762,-6.8879,-6.9081,0,0,0,-6.7326,-6.7638,-6.7417,-6.7759,-6.7524,-6.783,-6.7685,-6.7911,-6.8043,-6.7923,-6.8529,-6.8539,-6.8757,-6.8864,-6.9065,-6.9258,-6.9345,0,0,-6.7752,-6.7692,-6.7888,-6.7696,-6.8055,-6.7794,-6.819,-6.8257,-6.8217,-6.8435,-6.845,-6.8782,-6.8877,-6.9077,-6.9818,-6.9888,0,0,0,-6.8042,-6.8184,-6.8267,-6.8394,-6.8452,-6.8509,-6.8509,-6.8533,-6.8715,-6.8341,-6.891,-6.8965,-6.908,-6.9169,-6.9228,-6.932,-6.8584,-6.8583,-6.8582,-6.8728,-6.8656,-6.8974,-6.8927,-6.9052,-6.9046,-6.914,-6.9171,-6.9066,-6.9201,-6.9264,-6.9723,-6.983,-6.9874,-6.9971,-6.9364,-6.9365,-6.9365,-6.9366,-6.9341,-6.9528,-6.9376,-6.963,-6.9552,-6.9764,-6.977,-6.9687,-6.9871,-6.967,-6.9768,-6.9551,-6.9952,-7.0033,-6.9385,-6.9381,-6.9379,-6.9377,-6.9376,-6.9779,-6.9855,-6.9878,-7.005,-7.0191,-7.0132,-7.0315,-7.0239,-7.0168,-7.0265,-7.032,-7.0316,-7.0298,-7.0297,-7.0299,-7.0301,-7.0302,-7.0303,-7.0304,-7.0223,-7.024,-7.0403,-7.0487,-7.0555,-7.0636,-7.063,-7.0695,-7.0747,-7.0677,-7.0677,-7.0555,-7.0006,-6.9867,-7.0328,-7.0324,-7.0321,-7.0319,-7.0317,-7.0866,-7.0707,-7.096,-7.1028,-7.1116,-7.1258,-7.1158,-7.1296,-7.1338,-7.143,-7.1286,-7.0895,-7.0828,-7.078,-7.0664,-7.1304,-7.1304,-7.1304,-7.1304,-7.1232,-7.119,-7.1427,-7.154,-7.1643,-7.1576,-7.1859,-7.1857,-7.183,-7.185,-7.1747,-7.1588,-7.1544,-7.1503,-7.144,-7.133,-7.2125,-7.2125,-7.2126,-7.1621,-7.1584,-7.1841,-7.181,-7.1873,-7.1927,-7.219,-7.2324,-7.2261,-7.2158,-7.1864,-7.1829,-7.1572,-7.1493,-7.1382,-7.1286,-7.1083,0,0]},{"header":{"parameterUnit":"m.s-1","parameterCategory":1,"la1":30.2992,"la2":30.254,"lo1":-89.0895,"lo2":-89.0443,"dy":0.0025,"dx":0.0025,"nx":19,"ny":19,"refTime":"2026-04-08T03:00:00:Z","depth":0,"parameterNumber":3,"parameterNumberName":"V-component_of_WINDS"},"data":[0,0,0,0.3037,0.3039,0.3143,0.3143,0.3298,0.3299,0,0,0,0,0,0,0,0,0,0,0,0.3016,0.3018,0.3037,0.304,0.3143,0.3143,0.3297,0.3299,0,0,0,0,0,0,0,0,0,0,0,0.3016,0.3017,0.3019,0.304,0.3142,0.3143,0.3297,0.3212,0,0,0,0,0,0,0,0,0,0,0.3109,0.3098,0.3017,0.3019,0.3041,0.3142,0.3143,0.3208,0.3218,0.326,0,0.3296,0,0.33,0.3311,0.3311,0,0,0,0.3033,0.309,0.3108,0.3019,0.3042,0.3142,0.3094,0.3213,0.3224,0.3273,0.3298,0.3304,0.3303,0.3312,0.3313,0.3571,0.3573,0,0,0.3028,0.3041,0.3101,0.3116,0.3097,0.3091,0.3098,0.3219,0.325,0.3299,0.3307,0.3305,0.3313,0.3314,0.357,0.3572,0,0,0,0.3016,0.3037,0.3052,0.311,0.3127,0.3094,0.3102,0.3244,0.3248,0.3308,0.3307,0.3314,0.3316,0.3568,0.3571,0.3659,0,0,0,0.3012,0.303,0.305,0.306,0.3125,0.3186,0.3124,0.3239,0.3252,0.3306,0.3314,0.3318,0.3566,0.3569,0.3653,0.3701,0,0,0,0.3007,0.3029,0.3047,0.306,0.3104,0.3183,0.3194,0.3242,0.3252,0.3312,0.3318,0.3565,0.3569,0.3648,0.3692,0.3776,0,0,0,0.3005,0.3124,0.3049,0.3182,0.3104,0.3236,0.3193,0.3291,0.3352,0.3315,0.3567,0.357,0.3646,0.3686,0.377,0.3851,0.3884,0,0,0.3163,0.3144,0.3221,0.3156,0.3305,0.3219,0.3382,0.3426,0.3421,0.3523,0.3529,0.3655,0.3691,0.3774,0.4063,0.409,0,0,0,0.3276,0.3332,0.3368,0.3426,0.3461,0.3497,0.3514,0.3532,0.3617,0.3474,0.3706,0.3727,0.3775,0.3814,0.3837,0.388,0.3587,0.3587,0.3587,0.3521,0.3506,0.3634,0.3633,0.369,0.3707,0.3754,0.3781,0.3749,0.3804,0.3836,0.4012,0.4058,0.4075,0.412,0.3874,0.3874,0.3875,0.3875,0.3754,0.3833,0.3788,0.3897,0.3883,0.3976,0.3999,0.3974,0.4061,0.3987,0.4029,0.3952,0.4105,0.4144,0.3881,0.388,0.3879,0.3879,0.3878,0.3916,0.3951,0.3968,0.4053,0.412,0.4115,0.4201,0.4184,0.4169,0.4211,0.4245,0.4244,0.4244,0.4227,0.4228,0.4229,0.4229,0.423,0.423,0.4078,0.4095,0.4168,0.4217,0.4253,0.43,0.432,0.4357,0.4395,0.4377,0.4377,0.4344,0.412,0.4067,0.424,0.4238,0.4237,0.4236,0.4235,0.4327,0.4268,0.4381,0.4418,0.4477,0.4548,0.4524,0.4602,0.463,0.4675,0.4632,0.4468,0.4448,0.443,0.4386,0.4631,0.4631,0.4631,0.4631,0.4467,0.4454,0.4568,0.4629,0.4686,0.4677,0.4812,0.483,0.4841,0.4859,0.482,0.4759,0.4741,0.4732,0.4708,0.4667,0.4978,0.4978,0.4978,0.4622,0.4614,0.473,0.4736,0.4781,0.4822,0.4949,0.5025,0.5024,0.4992,0.4874,0.4859,0.4761,0.4728,0.4697,0.4658,0.4583,0,0]}]]